15min,AgWx,beryljct,423,16DEC2020:00:00:00,13.3,12.76,9.4,8.9,8.9,9.4,8.3,88,89,87,0.202,6.1,6.9,5.3,0.548,0.7,336,7.4,1.9,-0.00010,-0.00014,28.0,33.0,8,0,0,.,6.03,0.00,0.00
15min,AgWx,beryljct,423,16DEC2020:00:15:00,12.8,12.76,9.9,9.4,9.0,9.4,8.5,89,89,88,0.208,6.3,6.9,5.7,2.718,1.5,163,29,3.6,-0.00008,-0.00010,27.8,33.0,9,0,0,.,6.02,0.00,0.00
15min,AgWx,beryljct,423,16DEC2020:00:30:00,12.5,12.74,10.9,10.2,9.5,10.3,8.4,89,90,88,0.219,6.9,8.0,5.5,2.477,2.6,202,38,3.9,-0.00006,-0.00007,27.6,32.9,8,0,0,.,6.02,0.00,0.00
15min,AgWx,beryljct,423,16DEC2020:00:45:00,12.3,12.74,12.1,11.7,10.8,11.7,10.1,90,91,90,0.233,8.5,9.5,7.7,2.806,2.5,189,12,3.4,-0.00007,-0.00008,27.4,32.9,8,0,0,.,6.02,0.00,0.00
15min,AgWx,beryljct,423,16DEC2020:01:00:00,12.3,12.73,12.4,10.9,10.6,11.7,9.6,89,91,88,0.224,8.0,9.3,6.7,2.872,3.0,200,15,3.6,-0.00006,-0.00006,27.3,32.9,8,0,0,.,6.02,0.00,0.00
15min,AgWx,beryljct,423,16DEC2020:01:15:00,12.3,12.7,10.9,10.7,11.5,13.3,10.7,90,92,88,0.219,9.0,11.4,7.9,0.241,1.4,187,2.5,3.0,-0.00009,-0.00011,27.1,32.8,8,0,0,.,6.03,0.00,0.00
15min,AgWx,beryljct,423,16DEC2020:01:30:00,12.1,12.72,8.7,8.3,9.6,10.7,8.3,88,89,87,0.194,6.8,7.9,5.3,0.723,1.4,74,9.7,2.5,-0.00008,-0.00011,26.9,32.8,8,0,0,.,6.02,0.00,0.00
15min,AgWx,beryljct,423,16DEC2020:01:45:00,11.7,12.71,10.5,10.0,8.8,10.0,8.3,89,90,88,0.214,6.1,7.5,5.3,2.302,0.9,55,48,2.3,-0.00009,-0.00013,26.7,32.7,9,0,0,.,6.02,0.00,0.00
15min,AgWx,beryljct,423,16DEC2020:02:00:00,11.5,12.7,8.3,8.4,9.5,10.4,8.4,88,89,87,0.195,6.7,7.9,5.4,2.631,2.9,317,6.7,3.8,-0.00005,-0.00006,26.6,32.6,8,0,0,.,6.02,0.00,0.00
15min,AgWx,beryljct,423,16DEC2020:02:15:00,11.4,12.69,8.3,8.6,9.6,11.0,8.1,90,92,88,0.200,7.2,9.1,5.2,1.535,1.8,356,14,2.8,-0.00007,-0.00009,26.4,32.6,8,0,0,.,6.02,0.00,0.00
15min,AgWx,beryljct,423,16DEC2020:02:30:00,11.0,12.68,8.6,8.3,7.4,8.5,6.9,88,89,87,0.199,4.6,5.8,3.9,1.71,1.3,19,78,3.4,-0.00008,-0.00010,26.3,32.5,8,0,0,.,6.02,0.00,0.00
15min,AgWx,beryljct,423,16DEC2020:02:45:00,10.7,12.67,8.2,7.1,7.2,8.3,6.4,88,89,87,0.187,4.4,5.8,3.4,3.244,2.3,178,26,3.7,-0.00006,-0.00007,26.1,32.5,8,0,0,.,6.02,0.00,0.00
15min,AgWx,beryljct,423,16DEC2020:03:00:00,10.4,12.65,9.9,8.9,7.7,8.9,7.2,89,90,88,0.205,5.0,6.5,4.5,2.806,1.8,179,18,3.2,-0.00007,-0.00009,26.0,32.4,8,0,0,.,6.03,0.00,0.00
15min,AgWx,beryljct,423,16DEC2020:03:15:00,10.3,12.66,8.4,7.9,8.2,9.3,7.7,89,90,88,0.193,5.6,6.9,4.8,3.069,2.5,148,13,3.4,-0.00006,-0.00007,25.8,32.3,9,0,0,.,6.03,0.00,0.00
15min,AgWx,beryljct,423,16DEC2020:03:30:00,10.2,12.66,7.5,7.2,7.7,8.1,7.2,89,89,88,0.186,5.1,5.5,4.4,0,1.7,149,1.4,3.3,-0.00007,-0.00009,25.7,32.3,8,0,0,.,6.03,0.00,0.00
15min,AgWx,beryljct,423,16DEC2020:03:45:00,10.1,12.65,10.5,9.6,7.7,9.6,7.0,89,90,88,0.213,5.0,7.3,4.1,1.271,0.7,264,62,2.0,-0.00010,-0.00014,25.6,32.2,8,0,0,.,6.03,0.00,0.00
15min,AgWx,beryljct,423,16DEC2020:04:00:00,9.9,12.64,6.4,5.9,7.5,9.8,5.9,88,90,86,0.173,4.5,7.5,2.7,0,0.3,1.6,23,1.4,-0.00011,-0.00016,25.4,32.1,8,0,0,.,6.03,0.00,0.00
15min,AgWx,beryljct,423,16DEC2020:04:15:00,9.5,12.64,8.1,7.6,7.2,7.7,5.9,88,89,87,0.189,4.4,5.0,2.8,0.658,0.2,325,0.1,0.9,-0.00011,-0.00017,25.3,32.1,8,0,0,.,6.03,0.00,0.00
15min,AgWx,beryljct,423,16DEC2020:04:30:00,9.2,12.63,7.3,6.6,7.2,7.7,6.3,87,88,86,0.179,4.2,4.8,3.2,3.223,0.9,120,47,3.5,-0.00009,-0.00012,25.2,32.0,9,0,0,.,6.02,0.00,0.00
15min,AgWx,beryljct,423,16DEC2020:04:45:00,8.9,12.62,7.0,6.6,6.4,7.0,5.9,88,89,87,0.182,3.5,4.2,2.8,2.236,2.4,143,15,3.5,-0.00005,-0.00006,25.1,32.0,8,0,0,.,6.03,0.00,0.00
15min,AgWx,beryljct,423,16DEC2020:05:00:00,8.7,12.59,6.5,5.8,6.3,6.7,5.7,88,89,87,0.174,3.6,4.1,2.8,0,1.5,106,16,2.7,-0.00007,-0.00009,25.0,31.9,8,0,0,.,6.03,0.00,0.00
15min,AgWx,beryljct,423,16DEC2020:05:15:00,8.3,12.6,6.5,6.3,6.2,6.4,5.8,88,88,88,0.179,3.4,3.6,3.0,0.548,0.1,96,0.0,0.7,-0.00011,-0.00018,24.9,31.8,8,0,0,.,6.03,0.00,0.00
15min,AgWx,beryljct,423,16DEC2020:05:30:00,7.9,12.59,3.9,3.5,5.0,6.3,3.5,87,88,86,0.153,1.9,3.5,0.2,3.551,2.0,337,53,3.6,-0.00006,-0.00007,24.8,31.8,8,0,0,.,6.02,0.00,0.00
15min,AgWx,beryljct,423,16DEC2020:05:45:00,7.5,12.57,4.7,4.3,4.3,5.1,3.5,87,89,86,0.161,1.4,2.5,0.2,3.836,3.4,315,20,4.7,-0.00004,-0.00004,24.7,31.7,8,0,0,.,6.03,0.00,0.00
15min,AgWx,beryljct,423,16DEC2020:06:00:00,7.2,12.55,6.6,5.5,4.0,5.5,3.2,88,90,87,0.176,1.1,3.2,0.2,5.393,4.6,310,13,5.9,-0.00003,-0.00003,24.6,31.6,8,0,0,.,6.03,0.00,0.00
15min,AgWx,beryljct,423,16DEC2020:06:15:00,7.4,12.55,6.8,6.2,6.4,7.2,5.6,91,91,90,0.181,4.3,5.1,3.3,4.582,5.5,326,12,7.3,-0.00003,-0.00003,24.5,31.6,8,0,0,.,6.02,0.00,0.00
15min,AgWx,beryljct,423,16DEC2020:06:30:00,7.6,12.54,4.8,5.3,6.4,7.2,5.3,90,91,89,0.172,4.0,5.0,2.7,5.678,4.0,355,22,5.7,-0.00004,-0.00004,24.4,31.5,9,0,0,.,6.03,0.00,0.00
15min,AgWx,beryljct,423,16DEC2020:06:45:00,7.5,12.52,5.0,4.4,5.2,6.3,4.4,89,91,88,0.165,2.7,4.2,1.8,0,2.6,3.1,54,6.7,-0.00005,-0.00006,24.3,31.4,8,0,0,.,6.03,0.00,0.00
15min,AgWx,beryljct,423,16DEC2020:07:00:00,7.2,12.5,4.4,4.2,4.5,4.7,4.2,89,89,88,0.163,2.0,2.3,1.4,3.858,1.0,195,10,4.0,0.00001,0.00002,24.2,31.3,8,0,0,.,6.03,0.00,0.00
15min,AgWx,beryljct,423,16DEC2020:07:15:00,6.8,12.48,5.1,4.5,3.8,4.5,3.2,88,89,87,0.167,1.1,2.0,0.3,3.946,4.6,178,10,6.7,0.00003,0.00006,24.1,31.3,8,0,0,.,6.03,0.00,0.00
15min,AgWx,beryljct,423,16DEC2020:07:30:00,6.6,12.5,5.1,4.5,4.3,4.6,3.9,89,90,89,0.167,1.7,2.1,1.3,3.793,4.4,155,12,5.6,0.00003,0.00006,24.0,31.2,8,0,0,.,6.03,0.00,0.00
15min,AgWx,beryljct,423,16DEC2020:07:45:00,6.6,12.48,6.1,5.6,5.4,5.8,4.5,90,90,89,0.176,3.1,3.5,2.1,1.82,3.9,168,6.5,5.5,0.00004,0.00006,23.9,31.2,8,4,0,.,6.03,0.00,0.00
15min,AgWx,beryljct,423,16DEC2020:08:00:00,6.6,12.75,5.4,4.5,4.9,5.7,4.3,89,90,88,0.165,2.3,3.4,1.6,0,2.1,196,35,3.6,0.00006,0.00007,23.8,31.1,8,20,0,.,6.03,0.00,0.00
15min,AgWx,beryljct,423,16DEC2020:08:15:00,7.0,13.28,5.1,5.0,5.2,5.6,4.5,88,89,87,0.167,2.4,2.8,1.8,1.162,0.1,247,0.0,1.2,0.00011,0.00012,23.6,31.0,8,51,0,.,6.03,0.00,0.00
15min,AgWx,beryljct,423,16DEC2020:08:30:00,8.0,14.92,8.2,7.6,6.0,7.6,4.9,88,89,87,0.190,3.1,4.9,1.8,1.403,0.6,171,49,1.8,0.00017,0.00018,23.6,31.0,9,92,0,.,6.03,0.00,0.00
15min,AgWx,beryljct,423,16DEC2020:08:45:00,9.9,14.89,11.1,10.6,9.2,10.6,7.7,89,89,88,0.220,6.5,8.1,5.0,2.302,1.4,179,25,2.3,0.00024,0.00026,23.5,30.9,9,124,0,.,6.02,0.00,0.00
15min,AgWx,beryljct,423,16DEC2020:09:00:00,12.4,14.95,12.6,12.3,11.8,12.6,10.6,90,91,89,0.241,9.5,10.5,8.0,3.727,2.8,146,11,4.0,0.00032,0.00036,23.4,30.8,10,168,0,.,6.02,0.00,0.00
15min,AgWx,beryljct,423,16DEC2020:09:15:00,14.8,14.91,14.1,13.8,13.1,13.9,12.3,91,91,90,0.257,10.8,11.7,10.0,3.003,3.5,146,7.7,4.4,0.00039,0.00044,23.3,30.8,9,206,0,.,6.02,0.00,0.00
15min,AgWx,beryljct,423,16DEC2020:09:30:00,17.1,14.91,15.8,15.7,14.8,15.7,13.8,90,90,89,0.275,12.2,13.1,11.5,1.513,1.8,144,14,3.3,0.00052,0.00057,23.3,30.7,9,242,0,.,6.02,0.00,0.00
15min,AgWx,beryljct,423,16DEC2020:09:45:00,19.8,14.9,17.0,17.2,16.6,17.9,15.4,87,89,83,0.285,13.2,14.6,12.5,1.359,0.6,116,54,2.1,0.00067,0.00072,23.3,30.6,9,278,0,.,6.02,0.00,0.00
15min,AgWx,beryljct,423,16DEC2020:10:00:00,22.6,14.88,18.7,18.4,17.6,18.5,16.9,86,87,85,0.298,14.2,15.0,13.4,1.25,1.1,28,24,2.5,0.00076,0.00082,23.2,30.6,9,309,0,.,6.02,0.00,0.00
15min,AgWx,beryljct,423,16DEC2020:10:15:00,25.1,14.87,20.3,20.3,19.6,20.5,18.4,84,86,82,0.309,15.6,16.4,14.8,1.622,1.6,29,24,3.1,0.00087,0.00095,23.3,30.5,9,345,0,.,6.02,0.00,0.00
15min,AgWx,beryljct,423,16DEC2020:10:30:00,27.4,14.83,22.3,22.0,21.2,22.5,20.2,81,82,79,0.317,16.2,17.6,15.3,1.25,1.3,43,27,3.3,0.00102,0.00110,23.4,30.5,9,378,0,.,6.02,0.00,0.00
15min,AgWx,beryljct,423,16DEC2020:10:45:00,29.1,14.43,25.8,23.9,22.7,24.0,21.8,78,80,76,0.333,16.9,18.4,16.1,0.153,1.7,91,41,4.2,0.00113,0.00123,23.5,30.4,8,407,0,.,6.02,0.00,0.00
15min,AgWx,beryljct,423,16DEC2020:11:00:00,30.5,14.39,24.8,24.2,23.7,24.2,23.1,75,77,74,0.329,17.1,17.6,16.6,1.644,1.7,37,61,3.6,0.00123,0.00135,23.6,30.3,8,431,0,.,6.02,0.00,0.00
15min,AgWx,beryljct,423,16DEC2020:11:15:00,31.7,14.35,26.4,26.1,25.4,26.2,24.3,71,74,69,0.332,17.4,17.9,16.8,3.99,2.2,11,30,4.7,0.00133,0.00147,23.8,30.3,8,451,0,.,6.02,0.00,0.00
15min,AgWx,beryljct,423,16DEC2020:11:30:00,32.8,14.35,29.5,27.5,26.5,27.5,25.8,68,70,67,0.346,17.4,18.4,16.7,2.455,2.1,360,29,5.4,0.00142,0.00158,24.0,30.2,8,468,0,.,6.02,0.00,0.00
15min,AgWx,beryljct,423,16DEC2020:11:45:00,33.9,14.3,28.7,28.2,27.6,28.6,27.1,66,68,64,0.342,17.8,18.6,17.4,3.332,2.1,337,49,4.4,0.00150,0.00167,24.3,30.2,8,483,0,.,6.02,0.00,0.00
15min,AgWx,beryljct,423,16DEC2020:12:00:00,34.8,14.33,29.0,28.8,28.5,29.1,28.0,64,66,63,0.343,18.0,19.0,17.5,4.209,2.5,350,33,6.1,0.00155,0.00174,24.5,30.1,8,493,0,.,6.02,0.00,0.00
15min,AgWx,beryljct,423,16DEC2020:12:15:00,35.3,14.28,31.3,30.1,29.5,30.1,28.6,63,65,62,0.359,18.5,19.3,17.8,3.31,4.5,346,15,9.8,0.00157,0.00182,24.8,30.1,8,500,0,.,6.02,0.00,0.00
15min,AgWx,beryljct,423,16DEC2020:12:30:00,35.7,14.28,31.0,30.8,30.3,31.4,29.9,62,64,60,0.355,18.6,19.5,18.1,5.7,3.8,346,25,7.0,0.00163,0.00188,25.2,30.1,8,505,0,.,6.02,0.00,0.00
15min,AgWx,beryljct,423,16DEC2020:12:45:00,36.2,14.26,32.7,31.6,31.2,32.2,30.4,60,62,57,0.348,18.9,19.9,18.2,1.25,3.4,347,31,6.1,0.00168,0.00193,25.5,30.0,8,505,0,.,6.01,0.00,0.00
15min,AgWx,beryljct,423,16DEC2020:13:00:00,37.1,14.23,32.4,32.7,32.4,33.1,31.8,57,58,55,0.356,18.9,19.6,18.1,2.126,2.6,356,53,5.3,0.00174,0.00198,25.9,30.0,8,503,0,.,6.02,0.00,0.00
15min,AgWx,beryljct,423,16DEC2020:13:15:00,38.1,14.19,34.7,33.8,33.5,34.3,32.6,55,57,54,0.361,19.2,20.1,18.7,0.68,2.1,339,31,5.2,0.00177,0.00199,26.3,30.0,8,497,0,.,6.01,0.00,0.00
15min,AgWx,beryljct,423,16DEC2020:13:30:00,39.3,14.22,35.0,35.3,34.9,35.6,33.8,52,56,51,0.353,19.3,20.5,18.5,2.389,3.0,358,43,5.6,0.00179,0.00207,26.7,30.0,8,487,0,.,6.01,0.00,0.00
15min,AgWx,beryljct,423,16DEC2020:13:45:00,40.4,14.13,38.2,36.2,35.8,36.6,34.9,50,51,49,0.354,19.0,20.3,18.2,1.008,2.6,20,26,5.5,0.00178,0.00205,27.1,30.0,8,475,0,.,6.01,0.00,0.00
15min,AgWx,beryljct,423,16DEC2020:14:00:00,41.5,14.13,38.7,38.1,37.1,38.2,36.2,48,50,45,0.365,19.1,19.8,17.9,1.206,2.6,56,32,5.1,0.00171,0.00200,27.6,30.0,8,447,0,.,6.00,0.00,0.00
15min,AgWx,beryljct,423,16DEC2020:14:15:00,42.6,14.07,38.4,38.2,38.0,38.7,37.5,45,47,43,0.339,18.3,19.7,17.7,1.622,2.1,43,39,4.4,0.00168,0.00194,28.0,30.0,8,435,0,.,6.01,0.00,0.00
15min,AgWx,beryljct,423,16DEC2020:14:30:00,43.8,14.05,39.6,39.0,38.6,39.0,38.1,44,45,43,0.359,18.6,19.5,17.7,2.959,1.7,99,49,3.7,0.00155,0.00179,28.5,30.0,8,405,0,.,6.01,0.00,0.00
15min,AgWx,beryljct,423,16DEC2020:14:45:00,44.6,14.03,40.2,39.5,39.1,39.7,38.5,43,44,41,0.361,18.3,19.4,17.3,2.674,2.6,112,34,4.8,0.00151,0.00180,28.9,30.0,8,383,0,.,6.00,0.00,0.00
15min,AgWx,beryljct,423,16DEC2020:15:00:00,45.1,14.02,40.1,40.4,39.6,40.4,39.1,42,43,40,0.349,18.3,19.1,17.7,3.069,3.3,101,40,6.3,0.00138,0.00172,29.4,30.1,8,344,0,.,6.00,0.00,0.00
15min,AgWx,beryljct,423,16DEC2020:15:15:00,45.3,14,40.4,40.7,40.4,41.0,39.9,40,41,39,0.339,17.8,18.6,17.1,2.455,2.5,65,26,5.4,0.00125,0.00154,29.8,30.2,8,318,0,.,6.00,0.00,0.00
15min,AgWx,beryljct,423,16DEC2020:15:30:00,45.9,14.04,41.6,41.3,41.2,41.7,40.6,39,40,39,0.342,18.2,18.9,17.5,2.828,3.3,59,31,6.0,0.00116,0.00151,30.2,30.2,8,282,0,.,6.00,0.00,0.00
15min,AgWx,beryljct,423,16DEC2020:15:45:00,46.3,14.05,42.6,42.3,41.6,42.3,41.2,39,40,39,0.364,18.6,19.6,18.0,3.88,3.6,24,17,5.9,0.00100,0.00136,30.5,30.3,8,241,0,.,6.00,0.00,0.00
15min,AgWx,beryljct,423,16DEC2020:16:00:00,46.4,14.09,41.8,41.7,41.9,42.3,41.7,40,42,39,0.378,19.6,20.5,19.0,5.349,4.7,40,14,7.4,0.00091,0.00133,30.8,30.3,8,201,0,.,5.99,0.00,0.00
15min,AgWx,beryljct,423,16DEC2020:16:15:00,45.9,14.07,40.2,40.0,40.8,41.7,40.0,45,47,42,0.395,21.1,21.5,20.3,2.718,4.5,45,7.1,7.2,0.00050,0.00085,31.1,30.4,8,121,0,.,5.99,0.00,0.00
15min,AgWx,beryljct,423,16DEC2020:16:30:00,44.9,14.1,40.0,39.7,40.1,40.5,39.7,47,48,46,0.390,21.4,21.6,21.2,3.924,3.5,43,6.3,4.8,0.00028,0.00038,31.4,30.5,8,131,0,.,5.99,0.00,0.00
15min,AgWx,beryljct,423,16DEC2020:16:45:00,43.9,14.09,39.7,39.7,39.7,40.0,39.2,47,48,46,0.389,21.2,21.4,21.0,3.442,3.9,14,8.9,5.5,0.00024,0.00032,31.6,30.6,8,99,0,.,6.00,0.00,0.00
15min,AgWx,beryljct,423,16DEC2020:17:00:00,42.7,13.23,38.8,38.6,39.1,39.7,38.6,47,48,47,0.383,20.8,21.0,20.6,2.214,3.1,356,5.7,4.4,0.00012,0.00017,31.7,30.7,8,48,0,.,6.00,0.00,0.00
15min,AgWx,beryljct,423,16DEC2020:17:15:00,40.3,13.1,36.5,35.5,36.0,38.6,34.9,53,56,48,0.378,20.6,21.1,19.1,1.052,1.1,321,43,3.0,-0.00011,-0.00015,31.8,30.7,8,12,0,.,6.00,0.00,0.00
15min,AgWx,beryljct,423,16DEC2020:17:30:00,37.5,13.05,36.8,36.2,36.1,36.4,35.6,53,54,52,0.377,20.4,20.6,20.1,2.521,2.2,250,4.3,3.0,-0.00005,-0.00005,31.8,30.9,8,3,0,.,6.00,0.00,0.00
15min,AgWx,beryljct,423,16DEC2020:17:45:00,34.9,13,37.2,36.0,35.7,36.5,34.6,53,54,52,0.376,20.1,20.5,19.5,2.389,2.9,264,6.8,3.5,-0.00001,0.00002,31.8,30.9,9,0,0,.,6.00,0.00,0.00
15min,AgWx,beryljct,423,16DEC2020:18:00:00,32.5,12.99,23.3,23.7,30.2,36.2,23.7,60,71,52,0.310,17.8,20.4,15.8,0.636,1.8,275,11,2.9,-0.00008,-0.00009,31.7,31.0,8,0,0,.,6.00,0.00,0.00
15min,AgWx,beryljct,423,16DEC2020:18:15:00,29.9,12.98,29.6,26.4,23.3,26.4,22.0,75,78,72,0.369,16.5,19.8,15.4,2.083,1.6,245,11,2.4,-0.00010,-0.00013,31.7,31.1,8,0,0,.,6.00,0.00,0.00
15min,AgWx,beryljct,423,16DEC2020:18:30:00,27.9,12.96,25.9,29.8,29.4,32.0,25.8,65,76,59,0.349,19.1,20.7,15.9,0.351,1.7,239,2.1,2.5,-0.00010,-0.00012,31.5,31.3,9,0,0,.,6.01,0.00,0.00
15min,AgWx,beryljct,423,16DEC2020:18:45:00,26.3,12.93,23.1,24.5,23.8,29.5,20.8,72,80,62,0.331,16.1,19.4,14.3,1.556,1.4,236,11,2.5,-0.00011,-0.00014,31.4,31.3,8,0,0,.,6.01,0.00,0.00
15min,AgWx,beryljct,423,16DEC2020:19:00:00,24.9,12.93,21.2,20.5,21.3,24.4,20.1,77,82,70,0.310,15.2,17.1,13.7,1.03,1.3,272,23,3.0,-0.00011,-0.00015,31.3,31.4,8,0,0,.,6.01,0.00,0.00
15min,AgWx,beryljct,423,16DEC2020:19:15:00,23.7,12.91,26.4,27.1,24.0,28.7,20.5,77,82,65,0.328,17.7,21.2,15.5,1.798,1.0,264,12,2.3,-0.00014,-0.00019,31.1,31.5,8,0,0,.,6.01,0.00,0.00
15min,AgWx,beryljct,423,16DEC2020:19:30:00,23.3,12.9,27.2,21.7,25.6,29.7,21.4,70,77,64,0.303,17.0,19.9,13.9,2.258,1.8,282,11,3.1,-0.00009,-0.00011,31.0,31.6,9,0,0,.,6.01,0.00,0.00
15min,AgWx,beryljct,423,16DEC2020:19:45:00,23.0,12.89,22.9,21.4,25.1,28.3,21.4,72,81,63,0.291,17.3,20.3,12.8,2.828,2.4,305,8.3,2.9,-0.00007,-0.00007,30.8,31.7,9,0,0,.,6.01,0.00,0.00
15min,AgWx,beryljct,423,16DEC2020:20:00:00,22.6,12.88,20.9,23.0,24.2,25.9,21.5,75,79,72,0.310,17.3,19.0,14.7,1.228,3.7,291,8.8,4.9,-0.00003,-0.00003,30.6,31.7,9,0,0,.,6.01,0.00,0.00
15min,AgWx,beryljct,423,16DEC2020:20:15:00,22.3,12.87,20.8,20.5,21.4,22.8,20.1,77,79,72,0.292,15.1,17.2,13.6,2.214,1.6,339,25,2.5,-0.00010,-0.00012,30.3,31.8,9,0,0,.,6.01,0.00,0.00
15min,AgWx,beryljct,423,16DEC2020:20:30:00,21.5,12.86,19.7,20.3,19.1,20.5,17.6,80,83,77,0.305,13.9,15.7,12.1,0.723,1.7,305,15,3.2,-0.00009,-0.00011,30.1,31.8,8,0,0,.,6.01,0.00,0.00
15min,AgWx,beryljct,423,16DEC2020:20:45:00,21.0,12.86,23.0,22.6,21.3,23.4,19.2,75,81,70,0.291,14.7,16.2,13.7,5.787,3.6,297,12,6.0,-0.00004,-0.00003,29.9,31.9,8,0,0,.,6.01,0.00,0.00
15min,AgWx,beryljct,423,16DEC2020:21:00:00,21.0,12.85,20.6,19.9,20.7,22.7,19.0,74,78,70,0.285,13.6,14.5,12.4,6.379,6.3,308,2.4,7.2,0.00002,0.00003,29.7,32.0,9,0,0,.,6.01,0.00,0.00
15min,AgWx,beryljct,423,16DEC2020:21:15:00,20.9,12.84,22.7,22.1,20.5,22.1,18.8,76,78,74,0.304,14.1,15.3,12.6,2.696,5.0,306,12,8.3,-0.00001,0.00000,29.5,31.9,9,0,0,.,6.02,0.00,0.00
15min,AgWx,beryljct,423,16DEC2020:21:30:00,20.8,12.83,17.7,18.4,21.4,22.7,18.4,73,75,70,0.257,14.1,15.8,11.5,3.223,2.5,344,11,4.0,-0.00006,-0.00007,29.3,32.0,9,0,0,.,6.02,0.00,0.00
15min,AgWx,beryljct,423,16DEC2020:21:45:00,20.3,12.83,17.0,15.9,17.4,18.2,15.9,79,82,74,0.251,12.2,13.3,10.5,2.981,2.1,314,30,3.6,-0.00007,-0.00009,29.1,32.0,9,0,0,.,6.02,0.00,0.00
15min,AgWx,beryljct,423,16DEC2020:22:00:00,19.5,12.81,17.7,16.8,16.2,17.7,14.9,81,84,79,0.267,11.5,13.6,9.5,2.017,2.4,195,3.4,3.3,-0.00007,-0.00008,28.9,32.0,9,0,0,.,6.02,0.00,0.00
15min,AgWx,beryljct,423,16DEC2020:22:15:00,18.8,12.8,16.5,16.4,17.3,18.5,16.1,80,82,77,0.256,12.3,13.5,10.4,0.986,1.1,315,57,2.1,-0.00011,-0.00014,28.7,32.0,8,0,0,.,6.02,0.00,0.00
15min,AgWx,beryljct,423,16DEC2020:22:30:00,18.1,12.8,17.0,16.0,15.3,16.6,13.9,82,85,81,0.266,10.9,12.3,9.3,0.921,0.9,327,36,1.7,-0.00011,-0.00015,28.5,32.0,8,0,0,.,6.02,0.00,0.00
15min,AgWx,beryljct,423,16DEC2020:22:45:00,17.7,12.78,18.0,17.3,16.9,17.4,16.1,84,85,81,0.268,12.8,13.4,12.2,1.315,1.8,189,13,2.5,-0.00009,-0.00011,28.3,32.0,8,0,0,.,6.02,0.00,0.00
15min,AgWx,beryljct,423,16DEC2020:23:00:00,17.5,12.79,17.3,17.8,17.7,18.6,16.6,81,84,79,0.271,12.9,14.3,11.6,1.162,1.1,175,4.0,2.2,-0.00011,-0.00015,28.1,32.0,8,0,0,.,6.02,0.00,0.00
15min,AgWx,beryljct,423,16DEC2020:23:15:00,17.4,12.77,16.0,14.9,15.8,17.7,13.3,80,85,77,0.251,10.7,12.9,8.5,3.354,2.2,151,7.8,3.5,-0.00007,-0.00008,27.9,32.0,8,0,0,.,6.02,0.00,0.00
15min,AgWx,beryljct,423,16DEC2020:23:30:00,17.1,12.77,15.8,15.2,13.9,15.2,12.6,84,86,81,0.256,10.0,11.5,8.3,3.836,3.7,154,11,4.9,-0.00004,-0.00005,27.7,32.0,9,0,0,.,6.02,0.00,0.00
15min,AgWx,bigpiney,439,16DEC2020:00:00:00,3.9,12.49,5.7,4.8,3.4,4.8,1.9,84,85,84,0.160,-0.3,1.2,-2.0,0,3.5,235,22,5.7,0.00000,0.00001,30.3,32.5,45,0,0,0.0,0.01,0.00,0.00
15min,AgWx,bigpiney,439,16DEC2020:00:15:00,4.4,12.49,5.3,5.3,5.4,5.8,4.8,83,85,82,0.160,1.4,1.8,1.1,1.776,0.7,315,55,3.8,-0.00002,-0.00003,30.3,32.5,45,0,0,0.0,0.01,0.00,0.00
15min,AgWx,bigpiney,439,16DEC2020:00:30:00,5.1,12.47,6.0,5.2,4.5,5.2,4.2,83,84,82,0.161,0.4,1.3,-0.0,0,0.8,38,14,3.9,-0.00002,-0.00003,30.3,32.5,45,0,0,0.0,0.01,0.00,0.00
15min,AgWx,bigpiney,439,16DEC2020:00:45:00,5.5,12.46,7.0,6.2,5.7,6.4,4.8,83,84,82,0.170,1.8,2.5,0.6,1.71,1.1,265,25,3.0,-0.00002,-0.00002,30.3,32.6,45,0,0,0.0,0.01,0.00,0.00
15min,AgWx,bigpiney,439,16DEC2020:01:00:00,5.9,12.45,6.7,6.2,6.2,6.4,5.7,83,84,82,0.168,2.1,2.5,1.4,3.486,3.0,252,7.4,4.2,0.00000,0.00001,30.3,32.5,45,0,0,0.0,0.01,0.00,0.00
15min,AgWx,bigpiney,439,16DEC2020:01:15:00,6.2,12.44,6.2,5.6,5.8,6.2,5.5,83,84,83,0.164,1.8,2.2,1.5,3.179,2.1,217,12,3.8,-0.00001,-0.00000,30.3,32.6,45,0,0,0.0,0.01,0.00,0.00
15min,AgWx,bigpiney,439,16DEC2020:01:30:00,6.4,12.44,7.6,6.6,5.9,6.6,5.4,84,86,84,0.177,2.2,3.3,1.6,0.899,2.6,186,74,4.7,-0.00000,0.00000,30.3,32.5,45,0,0,0.0,0.01,0.00,0.00
15min,AgWx,bigpiney,439,16DEC2020:01:45:00,6.5,12.42,5.7,5.7,6.7,7.3,5.5,85,86,84,0.165,3.1,3.9,1.6,0.636,1.6,244,25,4.7,-0.00001,-0.00001,30.3,32.5,45,0,0,0.0,0.01,0.00,0.00
15min,AgWx,bigpiney,439,16DEC2020:02:00:00,6.5,12.41,7.8,6.8,6.7,7.9,5.5,85,86,84,0.174,3.2,4.6,1.8,3.003,2.2,236,16,4.0,-0.00001,-0.00001,30.3,32.5,45,0,0,0.0,0.01,0.00,0.00
15min,AgWx,bigpiney,439,16DEC2020:02:15:00,6.6,12.41,6.3,5.5,6.0,7.1,5.1,84,85,83,0.166,2.3,3.6,1.1,5.831,3.6,222,15,5.9,0.00000,0.00001,30.3,32.5,45,0,0,0.0,0.01,0.00,0.00
15min,AgWx,bigpiney,439,16DEC2020:02:30:00,6.4,12.37,5.4,4.8,5.0,5.7,4.5,84,85,83,0.159,1.2,2.0,0.6,3.639,4.5,221,5.3,5.8,0.00001,0.00001,30.3,32.5,45,0,0,0.0,0.01,0.00,0.00
15min,AgWx,bigpiney,439,16DEC2020:02:45:00,6.4,12.39,9.7,8.8,6.3,8.8,4.7,85,86,84,0.191,2.6,5.1,0.9,4.275,5.1,235,5.9,6.9,0.00001,0.00002,30.3,32.5,45,0,0,0.0,0.01,0.00,0.00
15min,AgWx,bigpiney,439,16DEC2020:03:00:00,6.7,12.39,4.5,4.2,6.1,9.4,3.6,82,85,78,0.156,1.8,5.4,-0.6,0.68,3.2,19,69,9.5,0.00001,0.00001,30.3,32.6,45,0,0,0.0,0.01,0.00,0.00
15min,AgWx,bigpiney,439,16DEC2020:03:15:00,6.8,12.38,5.3,4.5,4.3,4.5,4.1,85,85,85,0.160,0.8,1.1,0.5,1.578,0.9,126,34,2.4,-0.00002,-0.00003,30.2,32.5,45,0,0,0.0,0.01,0.00,0.00
15min,AgWx,bigpiney,439,16DEC2020:03:30:00,6.8,12.36,4.2,4.3,4.5,4.9,4.1,85,86,84,0.156,1.0,1.5,0.4,0.745,2.8,139,24,4.3,-0.00000,0.00000,30.2,32.5,45,0,0,0.0,0.01,0.00,0.00
15min,AgWx,bigpiney,439,16DEC2020:03:45:00,6.6,12.36,6.0,5.5,5.0,6.0,4.1,85,86,84,0.164,1.4,2.6,0.2,3.946,3.3,167,24,5.8,0.00000,0.00001,30.2,32.6,45,0,0,0.0,0.01,0.00,0.00
15min,AgWx,bigpiney,439,16DEC2020:04:00:00,6.5,12.37,5.5,5.4,6.1,7.9,5.4,84,86,82,0.161,2.2,4.7,1.3,3.683,4.0,209,11,6.6,0.00001,0.00001,30.2,32.6,45,0,0,0.0,0.01,0.00,0.00
15min,AgWx,bigpiney,439,16DEC2020:04:15:00,6.4,12.36,2.7,2.3,3.6,5.4,2.2,83,84,82,0.141,-0.3,1.3,-1.5,1.14,3.6,59,55,8.3,0.00001,0.00001,30.2,32.5,45,0,0,0.0,0.01,0.00,0.00
15min,AgWx,bigpiney,439,16DEC2020:04:30:00,6.0,12.36,4.1,3.2,2.5,3.2,1.9,85,86,84,0.151,-1.0,-0.0,-1.8,0.417,2.1,150,50,4.6,-0.00001,-0.00000,30.2,32.5,45,0,0,0.0,0.01,0.00,0.00
15min,AgWx,bigpiney,439,16DEC2020:04:45:00,5.4,12.36,3.7,1.9,2.7,3.6,1.4,85,87,83,0.140,-0.9,0.5,-2.6,3.749,1.8,232,58,4.2,-0.00001,-0.00001,30.2,32.5,45,0,0,0.0,0.01,0.00,0.00
15min,AgWx,bigpiney,439,16DEC2020:05:00:00,4.7,12.35,2.5,1.7,1.4,2.1,0.8,85,86,84,0.141,-2.0,-1.1,-3.0,4.362,4.3,248,24,7.0,0.00001,0.00001,30.2,32.6,45,0,0,0.0,0.01,0.00,0.00
15min,AgWx,bigpiney,439,16DEC2020:05:15:00,4.2,12.34,2.0,1.5,1.9,2.5,1.4,86,87,85,0.138,-1.3,-0.6,-2.2,6.379,3.7,253,18,7.0,0.00000,0.00001,30.2,32.5,45,0,0,0.0,0.01,0.00,0.00
15min,AgWx,bigpiney,439,16DEC2020:05:30:00,3.7,12.34,6.3,4.8,2.3,4.8,1.2,85,88,82,0.168,-1.2,2.1,-2.8,0.241,4.8,207,65,8.4,0.00001,0.00001,30.2,32.6,45,0,0,0.0,0.01,0.00,0.00
15min,AgWx,bigpiney,439,16DEC2020:05:45:00,3.5,12.34,2.3,1.9,3.0,4.9,1.2,84,88,81,0.138,-0.8,2.2,-3.3,4.538,2.2,227,73,5.3,-0.00001,-0.00000,30.2,32.5,45,0,0,0.0,0.01,0.00,0.00
15min,AgWx,bigpiney,439,16DEC2020:06:00:00,3.4,12.34,0.9,1.2,2.1,4.1,1.2,84,87,82,0.133,-1.6,1.1,-2.9,0.943,4.7,254,14,6.1,0.00001,0.00001,30.2,32.5,45,0,0,0.0,0.01,0.00,0.00
15min,AgWx,bigpiney,439,16DEC2020:06:15:00,3.1,12.34,-2.2,-2.2,-0.4,1.5,-2.2,84,88,81,0.114,-4.1,-1.2,-6.1,0.307,3.8,72,55,8.9,0.00001,0.00001,30.2,32.5,45,0,0,0.0,0.01,0.00,0.00
15min,AgWx,bigpiney,439,16DEC2020:06:30:00,2.6,12.33,2.0,-0.0,-1.3,1.1,-3.1,86,89,83,0.131,-4.6,-1.5,-7.0,0,2.2,145,70,10.5,-0.00001,-0.00001,30.2,32.6,45,0,0,0.0,0.01,0.00,0.00
15min,AgWx,bigpiney,439,16DEC2020:06:45:00,2.2,12.33,3.1,2.5,1.2,2.6,-0.7,87,89,84,0.148,-1.8,-0.1,-4.5,3.025,3.3,277,64,7.9,-0.00000,0.00000,30.2,32.5,45,0,0,0.0,0.01,0.00,0.00
15min,AgWx,bigpiney,439,16DEC2020:07:00:00,2.0,12.33,5.7,3.7,2.2,3.7,0.5,86,89,84,0.160,-1.0,1.2,-3.3,1.929,2.8,228,67,5.6,-0.00000,-0.00000,30.2,32.6,45,0,0,0.0,0.01,0.00,0.00
15min,AgWx,bigpiney,439,16DEC2020:07:15:00,2.1,12.33,1.8,1.7,3.7,5.6,1.6,86,90,83,0.137,0.5,3.2,-2.4,4.056,3.2,202,26,7.2,-0.00000,0.00000,30.2,32.5,45,0,0,0.0,0.01,0.00,0.00
15min,AgWx,bigpiney,439,16DEC2020:07:30:00,2.5,12.33,4.8,3.8,3.1,3.8,1.6,85,86,84,0.154,-0.4,0.3,-2.2,5.393,4.6,236,11,7.1,0.00001,0.00001,30.2,32.6,45,0,0,0.0,0.01,0.00,0.00
15min,AgWx,bigpiney,439,16DEC2020:07:45:00,3.2,12.39,7.8,7.7,6.5,7.7,3.8,86,88,85,0.184,3.2,4.6,0.4,3.946,3.6,211,16,5.9,0.00000,0.00001,30.2,32.6,45,3,0,0.0,0.01,0.00,0.00
15min,AgWx,bigpiney,439,16DEC2020:08:00:00,4.3,13.99,10.5,9.2,7.1,9.2,6.6,85,88,84,0.203,3.5,6.3,2.8,2.894,4.3,209,9.9,6.1,-0.00010,-0.00007,30.2,32.6,45,18,0,0.0,0.01,0.00,0.00
15min,AgWx,bigpiney,439,16DEC2020:08:15:00,5.5,14.99,9.3,9.8,10.3,11.5,8.3,83,88,79,0.197,6.3,7.5,3.1,5.086,3.1,176,46,5.1,-0.00010,-0.00007,30.2,32.6,45,34,0,0.0,0.01,0.00,0.00
15min,AgWx,bigpiney,439,16DEC2020:08:30:00,7.0,14.99,11.8,11.3,10.2,11.3,9.0,83,84,82,0.211,6.1,7.2,4.5,4.626,4.1,238,24,7.6,-0.00001,0.00003,30.2,32.6,45,64,0,0.0,0.01,0.00,0.00
15min,AgWx,bigpiney,439,16DEC2020:08:45:00,8.9,14.98,13.3,12.7,11.9,12.7,11.3,83,83,82,0.222,7.6,8.4,7.0,5.941,5.8,238,11,8.9,0.00006,0.00012,30.2,32.6,45,89,0,0.0,0.01,0.00,0.00
15min,AgWx,bigpiney,439,16DEC2020:09:00:00,10.9,14.98,14.7,14.1,13.1,14.1,12.4,82,83,82,0.237,8.7,9.7,7.9,7.936,7.3,227,9.7,10.9,0.00015,0.00022,30.1,32.5,45,118,0,0.0,0.01,0.00,0.00
15min,AgWx,bigpiney,439,16DEC2020:09:15:00,13.0,14.66,17.6,16.9,15.4,16.9,14.1,82,83,81,0.265,10.8,12.3,9.8,0.855,5.8,233,29,9.9,0.00023,0.00031,30.1,32.6,45,149,0,0.0,0.01,0.00,0.00
15min,AgWx,bigpiney,439,16DEC2020:09:30:00,15.5,14.62,18.7,18.4,17.5,18.4,16.8,80,82,79,0.281,12.5,13.6,11.4,3.354,3.3,193,28,5.0,0.00034,0.00040,30.1,32.5,45,197,0,0.0,0.01,0.00,0.00